This is the latest recevied weather packets stored in our database for station/object KC7YCE. If no packets are shown the sender has not sent any weather packets the latest 10 day(s).
| Time | Temp. | Humidity | Pressure | Rain* | Wind** | Luminosity | Snow |
|---|---|---|---|---|---|---|---|
| 1777889807 | 1.11° C | 63% | 1017.9 hPa | 0 mm | - | - | - |
| 1777889207 | 1.11° C | 63% | 1018 hPa | 0 mm | - | - | - |
| 1777888607 | 1.11° C | 61% | 1017.8 hPa | 0 mm | - | - | - |
| 1777885606 | 0.56° C | 64% | 1018.1 hPa | 0 mm | - | - | - |
| 1777884977 | 0.56° C | 66% | 1018.1 hPa | 0 mm | - | - | - |
| 1777884377 | 0.56° C | 66% | 1018.1 hPa | 0 mm | - | - | - |
| 1777883176 | 0.56° C | 66% | 1018.4 hPa | 0 mm | - | - | - |
| 1777882546 | 0.56° C | 65% | 1018.6 hPa | 0 mm | - | - | - |
| 1777881346 | 0.56° C | 64% | 1018.7 hPa | 0 mm | - | - | - |
| 1777880746 | 1.11° C | 63% | 1018.8 hPa | 0 mm | - | - | - |
| 1777880116 | 1.11° C | 61% | 1018.8 hPa | 0 mm | - | - | - |
| 1777879516 | 1.11° C | 60% | 1018.8 hPa | 0 mm | - | - | - |
| 1777878916 | 1.11° C | 61% | 1018.9 hPa | 0 mm | - | - | - |
| 1777878286 | 1.11° C | 59% | 1019 hPa | 0 mm | - | - | - |
| 1777877686 | 1.67° C | 59% | 1019 hPa | 0 mm | - | - | - |
| 1777877057 | 1.11° C | 59% | 1019 hPa | 0 mm | - | - | - |
| 1777876460 | 1.11° C | 60% | 1019 hPa | 0 mm | - | - | - |
| 1777875856 | 1.11° C | 61% | 1019 hPa | 0 mm | - | - | - |
| 1777874596 | 1.67° C | 59% | 1019 hPa | 0 mm | - | - | - |
| 1777873995 | 1.67° C | 59% | 1019.1 hPa | 0 mm | - | - | - |
| 1777873395 | 1.67° C | 59% | 1019.1 hPa | 0 mm | - | - | - |
| 1777872795 | 2.22° C | 58% | 1019.2 hPa | 0 mm | - | - | - |
| 1777872165 | 2.22° C | 57% | 1019.2 hPa | 0 mm | - | - | - |
| 1777871565 | 2.22° C | 57% | 1019.2 hPa | 0 mm | - | - | - |
| 1777870965 | 2.22° C | 58% | 1019.3 hPa | 0 mm | - | - | - |
* Rain latest hour (hover to see other rain measurements)
** Current wind speed in m/s (hover to see current wind gust speed)